Weather History for KBMG - April, 2013

Change the Weather History Date:

Friday, April 5, 2013

  Actual Average Record
Temperature  
Mean Temperature 46 °F 50 °F  
Max Temperature 62 °F 62 °F 77 °F (2001)
Min Temperature 29 °F 39 °F 23 °F (2002)
Degree Days  
Heating Degree Days 19 15  
Month to date heating degree days 121 78  
Since 1 July heating degree days 4947 4834  
Cooling Degree Days 0 0  
Month to date cooling degree days 0 0  
Year to date cooling degree days 0 3  
Moisture  
Dew Point 25 °F    
Average Humidity 49    
Maximum Humidity 72    
Minimum Humidity 25    
Precipitation  
Precipitation 0.00 in 0.14 in 0.99 in (2009)
Month to date precipitation T 0.75  
Year to date precipitation 10.25 10.70  
Sea Level Pressure  
Sea Level Pressure 30.07 in    
Wind  
Wind Speed 5 mph (North)    
Max Wind Speed 16 mph    
Max Gust Speed 23 mph    
Visibility 10 miles    
Events      
T = Trace of Precipitation, MM = Missing Value Source: NWS Daily Summary

Daily Weather History Graph

Daily Weather History Graph

Search for Another Location

Airport or City:

Trip Planner

Search our weather history database for the weather conditions in past years. The results will help you decide how hot, cold, wet, or windy it might be!

Date:

Astronomy

Apr. 05, 2013 Rise Set
Actual Time 7:24 AM EDT 8:14 PM EDT
Civil Twilight 6:57 AM EDT 8:41 PM EDT
Nautical Twilight 6:25 AM EDT 9:13 PM EDT
Astronomical Twilight 5:51 AM EDT 9:47 PM EDT
Moon 4:29 AM EDT (4/5) 3:39 PM EDT (4/5)
Length of Visible Light 13h 44m
Length of Day
12h 50m
Waning Crescent, 24% of the Moon is Illuminated
Apr 5
Waning Crescent
Apr 10
New
Apr 18
First Quarter
Apr 25
Full
May 2
Last Quarter

Hourly Weather History & Observations

Time (EDT) Temp. Windchill Dew Point Humidity Pressure Visibility Wind Dir Wind Speed Gust Speed Precip Events Conditions
12:53 AM 34.0 °F - 25.0 °F 70% 30.01 in 10.0 mi Calm Calm - N/A   Clear
1:53 AM 32.0 °F - 23.0 °F 69% 30.01 in 10.0 mi Calm Calm - N/A   Clear
2:53 AM 30.9 °F - 23.0 °F 72% 30.01 in 7.0 mi Calm Calm - N/A   Clear
3:53 AM 30.9 °F - 21.0 °F 67% 30.01 in 10.0 mi Calm Calm - N/A   Clear
4:53 AM 30.0 °F - 21.0 °F 69% 30.02 in 10.0 mi Calm Calm - N/A   Clear
5:53 AM 30.0 °F - 21.9 °F 72% 30.03 in 10.0 mi Calm Calm - N/A   Clear
6:53 AM 32.0 °F - 21.0 °F 64% 30.04 in 10.0 mi Calm Calm - N/A   Clear
7:53 AM 30.0 °F - 21.9 °F 72% 30.06 in 10.0 mi Calm Calm - N/A   Clear
8:53 AM 43.0 °F 41.3 °F 24.1 °F 47% 30.07 in 10.0 mi NW 3.5 mph - N/A   Clear
9:53 AM 48.0 °F - 27.0 °F 44% 30.08 in 10.0 mi North 9.2 mph - N/A   Clear
10:53 AM 53.1 °F - 30.0 °F 41% 30.09 in 10.0 mi North 8.1 mph - N/A   Clear
11:53 AM 57.0 °F - 32.0 °F 39% 30.10 in 10.0 mi Variable 6.9 mph - N/A   Clear
12:53 PM 59.0 °F - 30.9 °F 35% 30.10 in 10.0 mi North 15.0 mph 18.4 mph N/A   Clear
1:53 PM 59.0 °F - 28.0 °F 31% 30.10 in 10.0 mi North 10.4 mph 20.7 mph N/A   Clear
2:53 PM 61.0 °F - 26.1 °F 26% 30.09 in 10.0 mi North 13.8 mph 18.4 mph N/A   Clear
3:53 PM 61.0 °F - 25.0 °F 25% 30.07 in 10.0 mi North 8.1 mph 17.3 mph N/A   Clear
4:53 PM 61.0 °F - 24.1 °F 24% 30.06 in 10.0 mi Variable 4.6 mph - N/A   Clear
5:53 PM 60.1 °F - 24.1 °F 25% 30.06 in 10.0 mi North 8.1 mph - N/A   Clear
6:53 PM 57.9 °F - 23.0 °F 26% 30.08 in 10.0 mi North 6.9 mph - N/A   Clear
7:53 PM 53.1 °F - 28.0 °F 38% 30.09 in 10.0 mi North 6.9 mph - N/A   Clear
8:53 PM 46.0 °F 43.9 °F 27.0 °F 47% 30.10 in 10.0 mi North 4.6 mph - N/A   Clear
9:53 PM 45.0 °F 43.5 °F 27.0 °F 49% 30.12 in 10.0 mi North 3.5 mph - N/A   Clear
10:53 PM 44.1 °F - 28.0 °F 53% 30.13 in 10.0 mi Calm Calm - N/A   Clear
11:53 PM 43.0 °F - 28.0 °F 56% 30.12 in 10.0 mi Calm Calm - N/A   Clear